Weather in Garmashevka

Russia / Voronezh Oblast     49°38′53″N   40°04′31″E
temp.,
°C
wind,
m/s
gust,
m/s
humid.,
%
clouds,
%
prec.,
mm/h
press.,
hPa
HPBL,
m
31 july, sat
sat3100:00+21ssw3487100 0.9 100872
03:00+20w128994 1.3 100915
06:00+20wnw118878 0.2 100961
09:00+25nnw22660 0.2 1010659
12:00+30nnw124465 0.1 10092037
15:00+28n3347100 0.3 1009923
18:00+28nnw344495 0.0 1010629
21:00+26n114993 0.0 101111
1 august, sun
sun100:00+23ene11570 0.0 101111
03:00+21ne11640 0.0 101311
06:00+22ne22630 0.0 101347
09:00+29e34470 0.0 1013729
12:00+32ese34367 0.0 10122343
15:00+32ssw2332100 0.0 10112338
18:00+32nne333476 0.0 1011406
21:00+25wnw34583 0.3 101255
2 august, mon
mon200:00+23ne22625 0.0 101216
03:00+23nne22595 0.0 101113
06:00+23ene116076 0.0 101213
09:00+30s11355 0.0 1011390
12:00+36wsw12235 0.0 10112397
15:00+36sw332049 0.0 10093421
18:00+35wnw232324 0.0 10082606
21:00+28ssw00340 0.0 100811
3 august, tue
tue300:00+26s223734 0.0 100811
03:00+25wsw2340100 0.0 100824
06:00+25w114820 0.0 100911
09:00+28w354519 0.0 1009299
12:00+32wnw563797 0.0 10091509
15:00+31wnw7739100 0.0 10091555
18:00+30wnw58388 0.0 10091805
21:00+23nnw612506 0.0 1012551
4 august, wed
wed400:00+20nnw51159100 0.0 1014383
03:00+17nnw367143 0.0 1015109
06:00+17nnw266832 0.0 1016190
09:00+23n34461 0.0 10171006
12:00+27n44330 0.0 10172009
15:00+29nnw44290 0.0 10162636
18:00+28nnw33291 0.0 10162431
21:00+23w003859 0.0 101611